FW5856 Weather Reports


time (UTC)temp
F
wind
direction
speed
knots
gust
knots
rain 1hr
in
rain 24hr
in
rain mn
in
humidity
%
barometer
mb
20260505101550 35 312 2.6 5.2 0.00 0.00 0.00 73 1009.9
20260505100047 35 312 3.5 6.1 0.00 0.00 0.00 72 1010.0
20260505094547 36 310 3.5 7.0 0.00 0.00 0.00 71 1009.7
20260505093050 36 346 2.6 4.3 0.00 0.00 0.00 72 1009.7
20260505091554 35 315 2.6 4.3 0.00 0.00 0.00 72 1009.6
20260505090054 35 304 2.6 3.5 0.00 0.00 0.00 71 1009.6
20260505084556 36 304 3.5 5.2 0.00 0.00 0.00 69 1009.4
20260505083055 37 309 3.5 4.3 0.00 0.00 0.00 68 1009.4
20260505081539 37 309 3.5 6.1 0.00 0.00 0.00 67 1009.3
20260505080038 37 309 4.3 6.1 0.00 0.00 0.00 67 1009.6
20260505074540 37 311 4.3 5.2 0.00 0.00 0.00 66 1009.5
20260505073049 38 310 4.3 5.2 0.00 0.00 0.00 65 1009.4
20260505071542 38 304 4.3 6.1 0.00 0.00 0.00 65 1009.4
20260505070043 38 309 4.3 6.1 0.00 0.00 0.00 64 1009.3
20260505064603 40 309 3.5 6.1 0.00 0.00 0.00 61 1009.2
20260505063048 40 316 2.6 6.1 0.00 0.00 0.00 61 1009.1
20260505061546 41 338 3.5 5.2 0.00 0.00 0.00 60 1008.9
20260505060048 40 319 2.6 5.2 0.00 0.00 0.00 62 1009.1
20260505054550 40 315 1.7 3.5 0.00 0.00 0.00 62 1009.0
20260505053054 41 315 1.7 3.5 0.00 0.00 0.00 59 1009.0
20260505051541 41 315 2.6 4.3 0.00 0.00 0.00 60 1009.0
20260505041542 43 318 1.7 2.6 0.00 0.00 0.00 59 1009.0
20260505040059 45 321 1.7 3.5 0.00 0.00 0.00 55 1008.9
20260505034605 46 321 1.7 4.3 0.00 0.00 0.00 54 1009.0
20260505033045 46 329 1.7 5.2 0.00 0.00 0.00 53 1009.1
20260505031545 47 309 2.6 6.1 0.00 0.00 0.00 52 1009.0
20260505030049 47 328 2.6 5.2 0.00 0.00 0.00 51 1009.0
20260505024545 47 325 2.6 5.2 0.00 0.00 0.00 51 1008.7
20260505023048 48 325 0.9 5.2 0.00 0.00 0.00 50 1008.4
20260505021545 49 316 2.6 5.2 0.00 0.00 0.00 49 1008.2
20260505014544 51 315 5.2 8.7 0.00 0.00 0.00 46 1008.0
20260505013043 51 330 5.2 11.3 0.00 0.00 0.00 45 1007.9
20260505011553 52 317 6.1 12.2 0.00 0.00 0.00 45 1007.5
20260505010057 52 313 7.0 15.6 0.00 0.00 0.00 44 1007.5
20260505004556 52 306 7.8 20.9 0.00 0.00 0.00 44 1007.4
20260505003045 52 328 9.6 21.7 0.00 0.00 0.00 43 1007.4
20260505001545 52 327 12.2 20.9 0.00 0.00 0.00 43 1007.3
20260505000044 53 356 13.0 20.9 0.00 0.00 0.00 43 1007.1
20260504234548 53 326 13.0 24.3 0.00 0.00 0.00 43 1007.1
20260504233039 53 308 13.9 24.3 0.00 0.00 0.00 45 1007.3
20260504231618 53 338 12.2 26.1 0.00 0.00 0.00 45 1007.1
20260504230128 53 315 13.0 28.7 0.00 0.00 0.00 45 1007.0
20260504224544 54 321 19.1 27.8 0.00 0.00 0.00 45 1006.7
20260504223048 55 311 17.4 32.2 0.00 0.00 0.00 44 1006.4
20260504221619 55 300 16.5 26.9 0.00 0.00 0.00 44 1006.2
20260504220049 55 304 14.8 23.5 0.00 0.00 0.00 48 1006.4
20260504214544 55 298 18.2 33.0 0.00 0.00 0.00 46 1006.5
20260504213046 55 298 19.1 32.2 0.00 0.00 0.00 44 1006.6
20260504211549 56 295 18.2 32.2 0.00 0.00 0.00 43 1006.3
20260504210050 56 316 13.0 26.1 0.00 0.00 0.00 45 1006.0
20260504204549 57 4 9.6 20.0 0.00 0.00 0.00 46 1005.8
20260504203045 57 307 15.6 31.3 0.00 0.00 0.00 46 1005.7
20260504201544 57 323 17.4 30.4 0.00 0.00 0.00 44 1005.8
20260504200049 59 321 19.1 30.4 0.00 0.00 0.00 40 1005.6
20260504194546 59 342 20.9 27.8 0.00 0.00 0.00 38 1005.2
20260504193049 60 4 16.5 26.1 0.00 0.00 0.00 38 1005.2
20260504191609 59 311 14.8 22.6 0.00 0.00 0.00 43 1005.0
20260504190047 60 315 14.8 27.8 0.00 0.00 0.00 40 1004.8
20260504184555 60 333 13.0 23.5 0.00 0.00 0.00 40 1004.6
20260504183052 61 326 13.0 23.5 0.00 0.00 0.00 43 1004.4
20260504181548 61 345 13.0 20.9 0.00 0.00 0.00 39 1004.3
20260504180045 61 319 18.2 27.8 0.00 0.00 0.00 40 1004.0
20260504174545 61 318 13.9 27.8 0.00 0.00 0.00 38 1003.9
20260504173044 61 347 16.5 26.9 0.00 0.00 0.00 32 1003.9
20260504171543 60 305 14.8 26.1 0.00 0.00 0.00 43 1003.7